{"data":{"norad_id":68828,"epoch":"2026-09-19T15:50:06.091008Z","epoch_age_seconds":128309,"freshness":"FRESH","line1":"1 68828U 26090C   26262.65979272  .00007037  18471-5  29722-4 0  9993","line2":"2 68828  96.6323 177.6463 0014150  43.8210 316.4183 15.86821533 23638","mean_motion":15.86821533,"eccentricity":0.001415,"inclination_deg":96.6323,"raan_deg":177.6463,"arg_perigee_deg":43.821,"mean_anomaly_deg":316.4183,"bstar":2.9722e-5,"rev_number":2363,"period_min":90.747445131878,"perigee_km":301.73523701033,"apogee_km":320.66606255922,"semimajor_km":6689.3376497848,"source":"CELESTRAK","updated_at":"2026-09-20T09:00:24.494701Z"}}